#datetime,building,power
2022-08-17T00:00:00,mnr,7.45
2022-08-17T00:01:00,mnr,7.39
2022-08-17T00:02:00,mnr,7.47
2022-08-17T00:03:00,mnr,7.40
2022-08-17T00:04:00,mnr,9.24
2022-08-17T00:05:00,mnr,7.40
2022-08-17T00:06:00,mnr,7.30
2022-08-17T00:07:00,mnr,7.39
2022-08-17T00:08:00,mnr,8.10
2022-08-17T00:09:00,mnr,7.73
2022-08-17T00:10:00,mnr,7.91
2022-08-17T00:11:00,mnr,7.20
2022-08-17T00:12:00,mnr,7.18
2022-08-17T00:13:00,mnr,8.07
2022-08-17T00:14:00,mnr,8.21
2022-08-17T00:15:00,mnr,8.25
2022-08-17T00:16:00,mnr,9.14
2022-08-17T00:17:00,mnr,9.17
2022-08-17T00:18:00,mnr,9.17
2022-08-17T00:19:00,mnr,9.76
2022-08-17T00:20:00,mnr,9.06
2022-08-17T00:21:00,mnr,9.02
2022-08-17T00:22:00,mnr,9.01
2022-08-17T00:23:00,mnr,8.99
2022-08-17T00:24:00,mnr,8.98
2022-08-17T00:25:00,mnr,8.99
2022-08-17T00:26:00,mnr,9.00
2022-08-17T00:27:00,mnr,8.90
2022-08-17T00:28:00,mnr,8.87
2022-08-17T00:29:00,mnr,8.88
2022-08-17T00:30:00,mnr,9.33
2022-08-17T00:31:00,mnr,9.03
2022-08-17T00:32:00,mnr,9.01
2022-08-17T00:33:00,mnr,9.04
2022-08-17T00:34:00,mnr,8.80
2022-08-17T00:35:00,mnr,8.90
2022-08-17T00:36:00,mnr,8.91
2022-08-17T00:37:00,mnr,8.90
2022-08-17T00:38:00,mnr,8.80
2022-08-17T00:39:00,mnr,8.78
2022-08-17T00:40:00,mnr,9.31
2022-08-17T00:41:00,mnr,8.89
2022-08-17T00:42:00,mnr,8.90
2022-08-17T00:43:00,mnr,8.80
2022-08-17T00:44:00,mnr,8.82
2022-08-17T00:45:00,mnr,8.79
2022-08-17T00:46:00,mnr,8.73
2022-08-17T00:47:00,mnr,8.80
2022-08-17T00:48:00,mnr,8.83
2022-08-17T00:49:00,mnr,8.77
2022-08-17T00:50:00,mnr,8.73
2022-08-17T00:51:00,mnr,8.70
2022-08-17T00:52:00,mnr,9.15
2022-08-17T00:53:00,mnr,8.77
2022-08-17T00:54:00,mnr,10.63
2022-08-17T00:55:00,mnr,9.79
2022-08-17T00:56:00,mnr,9.52
2022-08-17T00:57:00,mnr,9.57
2022-08-17T00:58:00,mnr,8.96
2022-08-17T00:59:00,mnr,9.57
2022-08-17T01:00:00,mnr,8.93
2022-08-17T01:01:00,mnr,10.56
2022-08-17T01:02:00,mnr,12.09
2022-08-17T01:03:00,mnr,13.90
2022-08-17T01:04:00,mnr,9.30
2022-08-17T01:05:00,mnr,9.02
2022-08-17T01:06:00,mnr,10.18
2022-08-17T01:07:00,mnr,7.74
2022-08-17T01:08:00,mnr,7.71
2022-08-17T01:09:00,mnr,7.94
2022-08-17T01:10:00,mnr,7.71
2022-08-17T01:11:00,mnr,7.71
2022-08-17T01:12:00,mnr,7.70
2022-08-17T01:13:00,mnr,7.17
2022-08-17T01:14:00,mnr,7.16
2022-08-17T01:15:00,mnr,6.94
2022-08-17T01:16:00,mnr,6.93
2022-08-17T01:17:00,mnr,6.97
2022-08-17T01:18:00,mnr,7.01
2022-08-17T01:19:00,mnr,7.01
2022-08-17T01:20:00,mnr,7.02
2022-08-17T01:21:00,mnr,7.06
2022-08-17T01:22:00,mnr,7.05
2022-08-17T01:23:00,mnr,7.03
2022-08-17T01:24:00,mnr,7.03
2022-08-17T01:25:00,mnr,7.06
2022-08-17T01:26:00,mnr,7.06
2022-08-17T01:27:00,mnr,7.60
2022-08-17T01:28:00,mnr,7.04
2022-08-17T01:29:00,mnr,7.07
2022-08-17T01:30:00,mnr,7.05
2022-08-17T01:31:00,mnr,7.07
2022-08-17T01:32:00,mnr,6.98
2022-08-17T01:33:00,mnr,7.02
2022-08-17T01:34:00,mnr,7.21
2022-08-17T01:35:00,mnr,7.54
2022-08-17T01:36:00,mnr,7.11
2022-08-17T01:37:00,mnr,7.03
2022-08-17T01:38:00,mnr,7.48
2022-08-17T01:39:00,mnr,7.06
2022-08-17T01:40:00,mnr,8.24
2022-08-17T01:41:00,mnr,8.63
2022-08-17T01:42:00,mnr,7.00
2022-08-17T01:43:00,mnr,7.08
2022-08-17T01:44:00,mnr,7.42
2022-08-17T01:45:00,mnr,7.10
2022-08-17T01:46:00,mnr,7.07
2022-08-17T01:47:00,mnr,6.98
2022-08-17T01:48:00,mnr,6.95
2022-08-17T01:49:00,mnr,6.89
2022-08-17T01:50:00,mnr,7.15
2022-08-17T01:51:00,mnr,6.87
2022-08-17T01:52:00,mnr,6.97
2022-08-17T01:53:00,mnr,6.94
2022-08-17T01:54:00,mnr,6.95
2022-08-17T01:55:00,mnr,7.49
2022-08-17T01:56:00,mnr,7.05
2022-08-17T01:57:00,mnr,7.05
2022-08-17T01:58:00,mnr,7.94
2022-08-17T01:59:00,mnr,7.01
2022-08-17T02:00:00,mnr,6.97
2022-08-17T02:01:00,mnr,6.93
2022-08-17T02:02:00,mnr,7.08
2022-08-17T02:03:00,mnr,7.03
2022-08-17T02:04:00,mnr,7.14
2022-08-17T02:05:00,mnr,7.04
2022-08-17T02:06:00,mnr,7.04
2022-08-17T02:07:00,mnr,7.15
2022-08-17T02:08:00,mnr,7.15
2022-08-17T02:09:00,mnr,7.11
2022-08-17T02:10:00,mnr,7.10
2022-08-17T02:11:00,mnr,7.05
2022-08-17T02:12:00,mnr,7.06
2022-08-17T02:13:00,mnr,7.37
2022-08-17T02:14:00,mnr,7.07
2022-08-17T02:15:00,mnr,7.13
2022-08-17T02:16:00,mnr,7.12
2022-08-17T02:17:00,mnr,6.99
2022-08-17T02:18:00,mnr,7.10
2022-08-17T02:19:00,mnr,7.13
2022-08-17T02:20:00,mnr,7.11
2022-08-17T02:21:00,mnr,7.81
2022-08-17T02:22:00,mnr,7.68
2022-08-17T02:23:00,mnr,7.06
2022-08-17T02:24:00,mnr,7.03
2022-08-17T02:25:00,mnr,6.60
2022-08-17T02:26:00,mnr,7.23
2022-08-17T02:27:00,mnr,6.67
2022-08-17T02:28:00,mnr,6.63
2022-08-17T02:29:00,mnr,6.66
2022-08-17T02:30:00,mnr,6.64
2022-08-17T02:31:00,mnr,6.68
2022-08-17T02:32:00,mnr,6.65
2022-08-17T02:33:00,mnr,6.65
2022-08-17T02:34:00,mnr,6.58
2022-08-17T02:35:00,mnr,6.54
2022-08-17T02:36:00,mnr,6.58
2022-08-17T02:37:00,mnr,6.99
2022-08-17T02:38:00,mnr,6.54
2022-08-17T02:39:00,mnr,6.83
2022-08-17T02:40:00,mnr,6.52
2022-08-17T02:41:00,mnr,6.39
2022-08-17T02:42:00,mnr,6.37
2022-08-17T02:43:00,mnr,6.38
2022-08-17T02:44:00,mnr,6.35
2022-08-17T02:45:00,mnr,7.23
2022-08-17T02:46:00,mnr,6.43
2022-08-17T02:47:00,mnr,6.41
2022-08-17T02:48:00,mnr,6.69
2022-08-17T02:49:00,mnr,6.65
2022-08-17T02:50:00,mnr,6.54
2022-08-17T02:51:00,mnr,6.59
2022-08-17T02:52:00,mnr,6.51
2022-08-17T02:53:00,mnr,6.58
2022-08-17T02:54:00,mnr,6.53
2022-08-17T02:55:00,mnr,6.55
2022-08-17T02:56:00,mnr,6.47
2022-08-17T02:57:00,mnr,6.54
2022-08-17T02:58:00,mnr,6.42
2022-08-17T02:59:00,mnr,6.45
2022-08-17T03:00:00,mnr,6.46
2022-08-17T03:01:00,mnr,7.09
2022-08-17T03:02:00,mnr,6.50
2022-08-17T03:03:00,mnr,6.62
2022-08-17T03:04:00,mnr,6.48
2022-08-17T03:05:00,mnr,6.60
2022-08-17T03:06:00,mnr,6.81
2022-08-17T03:07:00,mnr,6.49
2022-08-17T03:08:00,mnr,6.57
2022-08-17T03:09:00,mnr,6.81
2022-08-17T03:10:00,mnr,6.91
2022-08-17T03:11:00,mnr,6.65
2022-08-17T03:12:00,mnr,6.48
2022-08-17T03:13:00,mnr,6.48
2022-08-17T03:14:00,mnr,6.79
2022-08-17T03:15:00,mnr,6.58
2022-08-17T03:16:00,mnr,6.56
2022-08-17T03:17:00,mnr,6.53
2022-08-17T03:18:00,mnr,6.48
2022-08-17T03:19:00,mnr,6.57
2022-08-17T03:20:00,mnr,6.64
2022-08-17T03:21:00,mnr,6.63
2022-08-17T03:22:00,mnr,8.06
2022-08-17T03:23:00,mnr,6.69
2022-08-17T03:24:00,mnr,6.69
2022-08-17T03:25:00,mnr,6.68
2022-08-17T03:26:00,mnr,6.86
2022-08-17T03:27:00,mnr,6.70
2022-08-17T03:28:00,mnr,6.66
2022-08-17T03:29:00,mnr,6.64
2022-08-17T03:30:00,mnr,6.66
2022-08-17T03:31:00,mnr,6.67
2022-08-17T03:32:00,mnr,6.56
2022-08-17T03:33:00,mnr,7.14
2022-08-17T03:34:00,mnr,6.75
2022-08-17T03:35:00,mnr,6.53
2022-08-17T03:36:00,mnr,6.57
2022-08-17T03:37:00,mnr,6.48
2022-08-17T03:38:00,mnr,6.48
2022-08-17T03:39:00,mnr,6.45
2022-08-17T03:40:00,mnr,6.39
2022-08-17T03:41:00,mnr,6.43
2022-08-17T03:42:00,mnr,6.49
2022-08-17T03:43:00,mnr,6.41
2022-08-17T03:44:00,mnr,6.41
2022-08-17T03:45:00,mnr,6.40
2022-08-17T03:46:00,mnr,6.54
2022-08-17T03:47:00,mnr,6.46
2022-08-17T03:48:00,mnr,6.41
2022-08-17T03:49:00,mnr,6.44
2022-08-17T03:50:00,mnr,6.45
2022-08-17T03:51:00,mnr,6.40
2022-08-17T03:52:00,mnr,6.48
2022-08-17T03:53:00,mnr,6.50
2022-08-17T03:54:00,mnr,6.91
2022-08-17T03:55:00,mnr,6.77
2022-08-17T03:56:00,mnr,6.80
2022-08-17T03:57:00,mnr,6.86
2022-08-17T03:58:00,mnr,6.92
2022-08-17T03:59:00,mnr,7.64
2022-08-17T04:00:00,mnr,6.81
2022-08-17T04:01:00,mnr,7.43
2022-08-17T04:02:00,mnr,6.98
2022-08-17T04:03:00,mnr,6.78
2022-08-17T04:04:00,mnr,6.73
2022-08-17T04:05:00,mnr,6.74
2022-08-17T04:06:00,mnr,6.71
2022-08-17T04:07:00,mnr,6.74
2022-08-17T04:08:00,mnr,6.67
2022-08-17T04:09:00,mnr,6.76
2022-08-17T04:10:00,mnr,6.71
2022-08-17T04:11:00,mnr,7.12
2022-08-17T04:12:00,mnr,6.80
2022-08-17T04:13:00,mnr,6.87
2022-08-17T04:14:00,mnr,6.89
2022-08-17T04:15:00,mnr,6.88
2022-08-17T04:16:00,mnr,7.32
2022-08-17T04:17:00,mnr,7.35
2022-08-17T04:18:00,mnr,7.01
2022-08-17T04:19:00,mnr,6.98
2022-08-17T04:20:00,mnr,6.93
2022-08-17T04:21:00,mnr,7.02
2022-08-17T04:22:00,mnr,8.39
2022-08-17T04:23:00,mnr,7.07
2022-08-17T04:24:00,mnr,7.03
2022-08-17T04:25:00,mnr,7.02
2022-08-17T04:26:00,mnr,6.95
2022-08-17T04:27:00,mnr,6.92
2022-08-17T04:28:00,mnr,6.98
2022-08-17T04:29:00,mnr,7.71
2022-08-17T04:30:00,mnr,7.43
2022-08-17T04:31:00,mnr,7.32
2022-08-17T04:32:00,mnr,7.77
2022-08-17T04:33:00,mnr,7.24
2022-08-17T04:34:00,mnr,7.22
2022-08-17T04:35:00,mnr,7.55
2022-08-17T04:36:00,mnr,7.18
2022-08-17T04:37:00,mnr,7.19
2022-08-17T04:38:00,mnr,7.74
2022-08-17T04:39:00,mnr,7.14
2022-08-17T04:40:00,mnr,7.13
2022-08-17T04:41:00,mnr,7.13
2022-08-17T04:42:00,mnr,7.31
2022-08-17T04:43:00,mnr,7.12
2022-08-17T04:44:00,mnr,7.12
2022-08-17T04:45:00,mnr,7.11
2022-08-17T04:46:00,mnr,7.22
2022-08-17T04:47:00,mnr,7.58
2022-08-17T04:48:00,mnr,7.16
2022-08-17T04:49:00,mnr,7.13
2022-08-17T04:50:00,mnr,7.10
2022-08-17T04:51:00,mnr,7.20
2022-08-17T04:52:00,mnr,6.90
2022-08-17T04:53:00,mnr,6.94
2022-08-17T04:54:00,mnr,6.87
2022-08-17T04:55:00,mnr,7.29
2022-08-17T04:56:00,mnr,6.94
2022-08-17T04:57:00,mnr,6.85
2022-08-17T04:58:00,mnr,6.90
2022-08-17T04:59:00,mnr,6.91
2022-08-17T05:00:00,mnr,6.83
2022-08-17T05:01:00,mnr,7.27
2022-08-17T05:02:00,mnr,8.52
2022-08-17T05:03:00,mnr,9.51
2022-08-17T05:04:00,mnr,9.80
2022-08-17T05:05:00,mnr,10.46
2022-08-17T05:06:00,mnr,10.55
2022-08-17T05:07:00,mnr,11.82
2022-08-17T05:08:00,mnr,10.56
2022-08-17T05:09:00,mnr,10.63
2022-08-17T05:10:00,mnr,10.46
2022-08-17T05:11:00,mnr,10.42
2022-08-17T05:12:00,mnr,11.05
2022-08-17T05:13:00,mnr,10.37
2022-08-17T05:14:00,mnr,10.40
2022-08-17T05:15:00,mnr,10.43
2022-08-17T05:16:00,mnr,10.37
2022-08-17T05:17:00,mnr,10.37
2022-08-17T05:18:00,mnr,10.30
2022-08-17T05:19:00,mnr,11.35
2022-08-17T05:20:00,mnr,10.25
2022-08-17T05:21:00,mnr,10.34
2022-08-17T05:22:00,mnr,10.26
2022-08-17T05:23:00,mnr,10.26
2022-08-17T05:24:00,mnr,10.51
2022-08-17T05:25:00,mnr,10.48
2022-08-17T05:26:00,mnr,10.47
2022-08-17T05:27:00,mnr,10.67
2022-08-17T05:28:00,mnr,10.51
2022-08-17T05:29:00,mnr,10.67
2022-08-17T05:30:00,mnr,10.44
2022-08-17T05:31:00,mnr,10.43
2022-08-17T05:32:00,mnr,11.72
2022-08-17T05:33:00,mnr,12.18
2022-08-17T05:34:00,mnr,12.22
2022-08-17T05:35:00,mnr,12.93
2022-08-17T05:36:00,mnr,12.90
2022-08-17T05:37:00,mnr,13.62
2022-08-17T05:38:00,mnr,13.26
2022-08-17T05:39:00,mnr,13.27
2022-08-17T05:40:00,mnr,12.89
2022-08-17T05:41:00,mnr,12.46
2022-08-17T05:42:00,mnr,12.34
2022-08-17T05:43:00,mnr,12.17
2022-08-17T05:44:00,mnr,12.49
2022-08-17T05:45:00,mnr,11.97
2022-08-17T05:46:00,mnr,11.97
2022-08-17T05:47:00,mnr,12.94
2022-08-17T05:48:00,mnr,12.02
2022-08-17T05:49:00,mnr,11.98
2022-08-17T05:50:00,mnr,13.65
2022-08-17T05:51:00,mnr,12.15
2022-08-17T05:52:00,mnr,12.09
2022-08-17T05:53:00,mnr,12.11
2022-08-17T05:54:00,mnr,12.11
2022-08-17T05:55:00,mnr,12.05
2022-08-17T05:56:00,mnr,12.67
2022-08-17T05:57:00,mnr,12.03
2022-08-17T05:58:00,mnr,13.44
2022-08-17T05:59:00,mnr,14.33
2022-08-17T06:00:00,mnr,13.18
2022-08-17T06:01:00,mnr,13.20
2022-08-17T06:02:00,mnr,13.35
2022-08-17T06:03:00,mnr,13.13
2022-08-17T06:04:00,mnr,13.20
2022-08-17T06:05:00,mnr,13.11
2022-08-17T06:06:00,mnr,13.17
2022-08-17T06:07:00,mnr,13.08
2022-08-17T06:08:00,mnr,13.61
2022-08-17T06:09:00,mnr,13.91
2022-08-17T06:10:00,mnr,13.92
2022-08-17T06:11:00,mnr,14.44
2022-08-17T06:12:00,mnr,14.02
2022-08-17T06:13:00,mnr,13.87
2022-08-17T06:14:00,mnr,13.88
2022-08-17T06:15:00,mnr,13.90
2022-08-17T06:16:00,mnr,14.14
2022-08-17T06:17:00,mnr,13.77
2022-08-17T06:18:00,mnr,13.76
2022-08-17T06:19:00,mnr,13.70
2022-08-17T06:20:00,mnr,13.62
2022-08-17T06:21:00,mnr,13.67
2022-08-17T06:22:00,mnr,13.57
2022-08-17T06:23:00,mnr,13.83
2022-08-17T06:24:00,mnr,13.84
2022-08-17T06:25:00,mnr,14.52
2022-08-17T06:26:00,mnr,13.79
2022-08-17T06:27:00,mnr,13.89
2022-08-17T06:28:00,mnr,14.74
2022-08-17T06:29:00,mnr,13.62
2022-08-17T06:30:00,mnr,13.63
2022-08-17T06:31:00,mnr,13.68
2022-08-17T06:32:00,mnr,13.62
2022-08-17T06:33:00,mnr,13.21
2022-08-17T06:34:00,mnr,13.11
2022-08-17T06:35:00,mnr,12.81
2022-08-17T06:36:00,mnr,12.81
2022-08-17T06:37:00,mnr,12.84
2022-08-17T06:38:00,mnr,12.36
2022-08-17T06:39:00,mnr,12.28
2022-08-17T06:40:00,mnr,12.57
2022-08-17T06:41:00,mnr,11.83
2022-08-17T06:42:00,mnr,12.16
2022-08-17T06:43:00,mnr,11.59
2022-08-17T06:44:00,mnr,11.54
2022-08-17T06:45:00,mnr,11.53
2022-08-17T06:46:00,mnr,11.65
2022-08-17T06:47:00,mnr,11.63
2022-08-17T06:48:00,mnr,12.01
2022-08-17T06:49:00,mnr,11.63
2022-08-17T06:50:00,mnr,11.63
2022-08-17T06:51:00,mnr,11.62
2022-08-17T06:52:00,mnr,11.07
2022-08-17T06:53:00,mnr,11.13
2022-08-17T06:54:00,mnr,11.12
2022-08-17T06:55:00,mnr,10.93
2022-08-17T06:56:00,mnr,11.00
2022-08-17T06:57:00,mnr,11.44
2022-08-17T06:58:00,mnr,10.94
2022-08-17T06:59:00,mnr,10.97
2022-08-17T07:00:00,mnr,10.92
2022-08-17T07:01:00,mnr,11.78
2022-08-17T07:02:00,mnr,12.13
2022-08-17T07:03:00,mnr,10.94
2022-08-17T07:04:00,mnr,11.60
2022-08-17T07:05:00,mnr,10.30
2022-08-17T07:06:00,mnr,10.55
2022-08-17T07:07:00,mnr,10.40
2022-08-17T07:08:00,mnr,10.34
2022-08-17T07:09:00,mnr,10.99
2022-08-17T07:10:00,mnr,10.44
2022-08-17T07:11:00,mnr,10.57
2022-08-17T07:12:00,mnr,10.63
2022-08-17T07:13:00,mnr,10.37
2022-08-17T07:14:00,mnr,10.41
2022-08-17T07:15:00,mnr,10.50
2022-08-17T07:16:00,mnr,10.45
2022-08-17T07:17:00,mnr,10.43
2022-08-17T07:18:00,mnr,11.02
2022-08-17T07:19:00,mnr,10.85
2022-08-17T07:20:00,mnr,10.49
2022-08-17T07:21:00,mnr,11.04
2022-08-17T07:22:00,mnr,10.68
2022-08-17T07:23:00,mnr,10.87
2022-08-17T07:24:00,mnr,10.91
2022-08-17T07:25:00,mnr,10.65
2022-08-17T07:26:00,mnr,10.64
2022-08-17T07:27:00,mnr,10.61
2022-08-17T07:28:00,mnr,10.56
2022-08-17T07:29:00,mnr,10.54
2022-08-17T07:30:00,mnr,11.17
2022-08-17T07:31:00,mnr,11.47
2022-08-17T07:32:00,mnr,13.07
2022-08-17T07:33:00,mnr,13.50
2022-08-17T07:34:00,mnr,12.19
2022-08-17T07:35:00,mnr,12.81
2022-08-17T07:36:00,mnr,12.20
2022-08-17T07:37:00,mnr,12.31
2022-08-17T07:38:00,mnr,12.15
2022-08-17T07:39:00,mnr,11.98
2022-08-17T07:40:00,mnr,12.58
2022-08-17T07:41:00,mnr,11.94
2022-08-17T07:42:00,mnr,11.35
2022-08-17T07:43:00,mnr,11.33
2022-08-17T07:44:00,mnr,11.01
2022-08-17T07:45:00,mnr,10.97
2022-08-17T07:46:00,mnr,10.85
2022-08-17T07:47:00,mnr,8.17
2022-08-17T07:48:00,mnr,11.94
2022-08-17T07:49:00,mnr,11.90
2022-08-17T07:50:00,mnr,11.96
2022-08-17T07:51:00,mnr,12.05
2022-08-17T07:52:00,mnr,12.59
2022-08-17T07:53:00,mnr,12.01
2022-08-17T07:54:00,mnr,12.01
2022-08-17T07:55:00,mnr,11.99
2022-08-17T07:56:00,mnr,12.74
2022-08-17T07:57:00,mnr,13.65
2022-08-17T07:58:00,mnr,12.57
2022-08-17T07:59:00,mnr,12.89
2022-08-17T08:00:00,mnr,12.89
2022-08-17T08:01:00,mnr,12.88
2022-08-17T08:02:00,mnr,13.57
2022-08-17T08:03:00,mnr,13.67
2022-08-17T08:04:00,mnr,14.07
2022-08-17T08:05:00,mnr,13.65
2022-08-17T08:06:00,mnr,10.53
2022-08-17T08:07:00,mnr,14.27
2022-08-17T08:08:00,mnr,13.90
2022-08-17T08:09:00,mnr,17.94
2022-08-17T08:10:00,mnr,15.69
2022-08-17T08:11:00,mnr,15.04
2022-08-17T08:12:00,mnr,14.75
2022-08-17T08:13:00,mnr,15.39
2022-08-17T08:14:00,mnr,14.45
2022-08-17T08:15:00,mnr,13.86
2022-08-17T08:16:00,mnr,13.80
2022-08-17T08:17:00,mnr,13.17
2022-08-17T08:18:00,mnr,13.20
2022-08-17T08:19:00,mnr,13.77
2022-08-17T08:20:00,mnr,13.52
2022-08-17T08:21:00,mnr,13.90
2022-08-17T08:22:00,mnr,13.92
2022-08-17T08:23:00,mnr,14.12
2022-08-17T08:24:00,mnr,14.61
2022-08-17T08:25:00,mnr,14.54
2022-08-17T08:26:00,mnr,13.84
2022-08-17T08:27:00,mnr,14.01
2022-08-17T08:28:00,mnr,14.17
2022-08-17T08:29:00,mnr,14.35
2022-08-17T08:30:00,mnr,15.11
2022-08-17T08:31:00,mnr,15.49
2022-08-17T08:32:00,mnr,15.13
2022-08-17T08:33:00,mnr,15.27
2022-08-17T08:34:00,mnr,16.00
2022-08-17T08:35:00,mnr,14.80
2022-08-17T08:36:00,mnr,14.79
2022-08-17T08:37:00,mnr,13.36
2022-08-17T08:38:00,mnr,16.05
2022-08-17T08:39:00,mnr,16.13
2022-08-17T08:40:00,mnr,16.25
2022-08-17T08:41:00,mnr,16.20
2022-08-17T08:42:00,mnr,16.08
2022-08-17T08:43:00,mnr,16.00
2022-08-17T08:44:00,mnr,16.02
2022-08-17T08:45:00,mnr,14.23
2022-08-17T08:46:00,mnr,14.82
2022-08-17T08:47:00,mnr,14.84
2022-08-17T08:48:00,mnr,15.66
2022-08-17T08:49:00,mnr,16.85
2022-08-17T08:50:00,mnr,15.77
2022-08-17T08:51:00,mnr,15.26
2022-08-17T08:52:00,mnr,15.10
2022-08-17T08:53:00,mnr,15.11
2022-08-17T08:54:00,mnr,15.43
2022-08-17T08:55:00,mnr,15.54
2022-08-17T08:56:00,mnr,16.22
2022-08-17T08:57:00,mnr,16.50
2022-08-17T08:58:00,mnr,17.87
2022-08-17T08:59:00,mnr,17.97
2022-08-17T09:00:00,mnr,17.45
2022-08-17T09:01:00,mnr,18.27
2022-08-17T09:02:00,mnr,18.07
2022-08-17T09:03:00,mnr,18.57
2022-08-17T09:04:00,mnr,19.89
2022-08-17T09:05:00,mnr,19.63
2022-08-17T09:06:00,mnr,18.14
2022-08-17T09:07:00,mnr,19.47
2022-08-17T09:08:00,mnr,19.11
2022-08-17T09:09:00,mnr,20.07
2022-08-17T09:10:00,mnr,21.65
2022-08-17T09:11:00,mnr,23.96
2022-08-17T09:12:00,mnr,26.23
2022-08-17T09:13:00,mnr,28.18
2022-08-17T09:14:00,mnr,30.41
2022-08-17T09:15:00,mnr,32.48
2022-08-17T09:16:00,mnr,34.10
2022-08-17T09:17:00,mnr,19.59
2022-08-17T09:18:00,mnr,17.81
2022-08-17T09:19:00,mnr,16.85
2022-08-17T09:20:00,mnr,16.54
2022-08-17T09:21:00,mnr,16.76
2022-08-17T09:22:00,mnr,16.89
2022-08-17T09:23:00,mnr,17.02
2022-08-17T09:24:00,mnr,17.01
2022-08-17T09:25:00,mnr,17.04
2022-08-17T09:26:00,mnr,17.69
2022-08-17T09:27:00,mnr,17.32
2022-08-17T09:28:00,mnr,17.02
2022-08-17T09:29:00,mnr,17.29
2022-08-17T09:30:00,mnr,16.53
2022-08-17T09:31:00,mnr,16.49
2022-08-17T09:32:00,mnr,17.10
2022-08-17T09:33:00,mnr,17.41
2022-08-17T09:34:00,mnr,17.42
2022-08-17T09:35:00,mnr,17.12
2022-08-17T09:36:00,mnr,16.50
2022-08-17T09:37:00,mnr,16.42
2022-08-17T09:38:00,mnr,16.37
2022-08-17T09:39:00,mnr,16.44
2022-08-17T09:40:00,mnr,16.57
2022-08-17T09:41:00,mnr,18.04
2022-08-17T09:42:00,mnr,17.67
2022-08-17T09:43:00,mnr,25.63
2022-08-17T09:44:00,mnr,17.53
2022-08-17T09:45:00,mnr,17.52
2022-08-17T09:46:00,mnr,17.23
2022-08-17T09:47:00,mnr,17.43
2022-08-17T09:48:00,mnr,17.80
2022-08-17T09:49:00,mnr,17.53
2022-08-17T09:50:00,mnr,16.90
2022-08-17T09:51:00,mnr,17.57
2022-08-17T09:52:00,mnr,16.59
2022-08-17T09:53:00,mnr,16.66
2022-08-17T09:54:00,mnr,26.15
2022-08-17T09:55:00,mnr,16.62
2022-08-17T09:56:00,mnr,16.70
2022-08-17T09:57:00,mnr,17.37
2022-08-17T09:58:00,mnr,18.31
2022-08-17T09:59:00,mnr,18.02
2022-08-17T10:00:00,mnr,17.90
2022-08-17T10:01:00,mnr,17.95
2022-08-17T10:02:00,mnr,17.81
2022-08-17T10:03:00,mnr,17.76
2022-08-17T10:04:00,mnr,17.86
2022-08-17T10:05:00,mnr,17.78
2022-08-17T10:06:00,mnr,16.55
2022-08-17T10:07:00,mnr,16.64
2022-08-17T10:08:00,mnr,18.36
2022-08-17T10:09:00,mnr,18.30
2022-08-17T10:10:00,mnr,18.53
2022-08-17T10:11:00,mnr,17.90
2022-08-17T10:12:00,mnr,18.21
2022-08-17T10:13:00,mnr,18.51
2022-08-17T10:14:00,mnr,18.37
2022-08-17T10:15:00,mnr,18.95
2022-08-17T10:16:00,mnr,19.08
2022-08-17T10:17:00,mnr,19.05
2022-08-17T10:18:00,mnr,18.54
2022-08-17T10:19:00,mnr,19.29
2022-08-17T10:20:00,mnr,18.35
2022-08-17T10:21:00,mnr,18.13
2022-08-17T10:22:00,mnr,18.41
2022-08-17T10:23:00,mnr,18.73
2022-08-17T10:24:00,mnr,19.31
2022-08-17T10:25:00,mnr,18.33
2022-08-17T10:26:00,mnr,18.49
2022-08-17T10:27:00,mnr,18.23
2022-08-17T10:28:00,mnr,20.39
2022-08-17T10:29:00,mnr,19.14
2022-08-17T10:30:00,mnr,26.72
2022-08-17T10:31:00,mnr,18.54
2022-08-17T10:32:00,mnr,18.67
2022-08-17T10:33:00,mnr,18.71
2022-08-17T10:34:00,mnr,18.65
2022-08-17T10:35:00,mnr,19.04
2022-08-17T10:36:00,mnr,18.46
2022-08-17T10:37:00,mnr,17.43
2022-08-17T10:38:00,mnr,17.31
2022-08-17T10:39:00,mnr,17.92
2022-08-17T10:40:00,mnr,17.19
2022-08-17T10:41:00,mnr,17.41
2022-08-17T10:42:00,mnr,17.72
2022-08-17T10:43:00,mnr,17.15
2022-08-17T10:44:00,mnr,17.15
2022-08-17T10:45:00,mnr,17.35
2022-08-17T10:46:00,mnr,17.51
2022-08-17T10:47:00,mnr,16.82
2022-08-17T10:48:00,mnr,16.91
2022-08-17T10:49:00,mnr,17.75
2022-08-17T10:50:00,mnr,16.43
2022-08-17T10:51:00,mnr,16.36
2022-08-17T10:52:00,mnr,16.96
2022-08-17T10:53:00,mnr,15.95
2022-08-17T10:54:00,mnr,16.05
2022-08-17T10:55:00,mnr,16.33
2022-08-17T10:56:00,mnr,16.96
2022-08-17T10:57:00,mnr,16.70
2022-08-17T10:58:00,mnr,17.68
2022-08-17T10:59:00,mnr,17.00
2022-08-17T11:00:00,mnr,17.99
2022-08-17T11:01:00,mnr,18.16
2022-08-17T11:02:00,mnr,18.24
2022-08-17T11:03:00,mnr,18.68
2022-08-17T11:04:00,mnr,20.21
2022-08-17T11:05:00,mnr,19.81
2022-08-17T11:06:00,mnr,19.59
2022-08-17T11:07:00,mnr,20.17
2022-08-17T11:08:00,mnr,19.71
2022-08-17T11:09:00,mnr,19.69
2022-08-17T11:10:00,mnr,20.24
2022-08-17T11:11:00,mnr,18.56
2022-08-17T11:12:00,mnr,17.86
2022-08-17T11:13:00,mnr,18.08
2022-08-17T11:14:00,mnr,18.54
2022-08-17T11:15:00,mnr,19.62
2022-08-17T11:16:00,mnr,20.37
2022-08-17T11:17:00,mnr,20.30
2022-08-17T11:18:00,mnr,20.33
2022-08-17T11:19:00,mnr,20.60
2022-08-17T11:20:00,mnr,20.24
2022-08-17T11:21:00,mnr,20.86
2022-08-17T11:22:00,mnr,19.54
2022-08-17T11:23:00,mnr,18.92
2022-08-17T11:24:00,mnr,19.01
2022-08-17T11:25:00,mnr,18.82
2022-08-17T11:26:00,mnr,18.42
2022-08-17T11:27:00,mnr,18.53
2022-08-17T11:28:00,mnr,19.45
2022-08-17T11:29:00,mnr,18.54
2022-08-17T11:30:00,mnr,29.09
2022-08-17T11:31:00,mnr,19.40
2022-08-17T11:32:00,mnr,18.53
2022-08-17T11:33:00,mnr,18.80
2022-08-17T11:34:00,mnr,19.49
2022-08-17T11:35:00,mnr,19.29
2022-08-17T11:36:00,mnr,18.87
2022-08-17T11:37:00,mnr,21.12
2022-08-17T11:38:00,mnr,20.49
2022-08-17T11:39:00,mnr,20.04
2022-08-17T11:40:00,mnr,20.10
2022-08-17T11:41:00,mnr,19.87
2022-08-17T11:42:00,mnr,19.68
2022-08-17T11:43:00,mnr,20.29
2022-08-17T11:44:00,mnr,19.14
2022-08-17T11:45:00,mnr,18.99
2022-08-17T11:46:00,mnr,17.87
2022-08-17T11:47:00,mnr,17.85
2022-08-17T11:48:00,mnr,16.85
2022-08-17T11:49:00,mnr,17.38
2022-08-17T11:50:00,mnr,17.42
2022-08-17T11:51:00,mnr,17.53
2022-08-17T11:52:00,mnr,17.23
2022-08-17T11:53:00,mnr,17.91
2022-08-17T11:54:00,mnr,17.84
2022-08-17T11:55:00,mnr,17.30
2022-08-17T11:56:00,mnr,17.52
2022-08-17T11:57:00,mnr,17.65
2022-08-17T11:58:00,mnr,17.56
2022-08-17T11:59:00,mnr,17.41
2022-08-17T12:00:00,mnr,17.45
2022-08-17T12:01:00,mnr,17.43
2022-08-17T12:02:00,mnr,17.31
2022-08-17T12:03:00,mnr,17.54
2022-08-17T12:04:00,mnr,19.30
2022-08-17T12:05:00,mnr,17.19
2022-08-17T12:06:00,mnr,17.47
2022-08-17T12:07:00,mnr,19.31
2022-08-17T12:08:00,mnr,18.95
2022-08-17T12:09:00,mnr,18.50
2022-08-17T12:10:00,mnr,18.14
2022-08-17T12:11:00,mnr,18.31
2022-08-17T12:12:00,mnr,18.62
2022-08-17T12:13:00,mnr,18.18
2022-08-17T12:14:00,mnr,17.51
2022-08-17T12:15:00,mnr,17.97
2022-08-17T12:16:00,mnr,17.30
2022-08-17T12:17:00,mnr,18.50
2022-08-17T12:18:00,mnr,17.97
2022-08-17T12:19:00,mnr,17.96
2022-08-17T12:20:00,mnr,18.35
2022-08-17T12:21:00,mnr,19.97
2022-08-17T12:22:00,mnr,22.56
2022-08-17T12:23:00,mnr,25.68
2022-08-17T12:24:00,mnr,29.02
2022-08-17T12:25:00,mnr,32.10
2022-08-17T12:26:00,mnr,31.46
2022-08-17T12:27:00,mnr,31.08
2022-08-17T12:28:00,mnr,21.30
2022-08-17T12:29:00,mnr,17.33
2022-08-17T12:30:00,mnr,17.67
2022-08-17T12:31:00,mnr,17.83
2022-08-17T12:32:00,mnr,17.59
2022-08-17T12:33:00,mnr,18.20
2022-08-17T12:34:00,mnr,18.16
2022-08-17T12:35:00,mnr,18.31
2022-08-17T12:36:00,mnr,18.47
2022-08-17T12:37:00,mnr,18.36
2022-08-17T12:38:00,mnr,18.02
2022-08-17T12:39:00,mnr,18.60
2022-08-17T12:40:00,mnr,18.48
2022-08-17T12:41:00,mnr,18.13
2022-08-17T12:42:00,mnr,17.29
2022-08-17T12:43:00,mnr,15.58
2022-08-17T12:44:00,mnr,15.56
2022-08-17T12:45:00,mnr,15.73
2022-08-17T12:46:00,mnr,15.42
2022-08-17T12:47:00,mnr,15.05
2022-08-17T12:48:00,mnr,15.65
2022-08-17T12:49:00,mnr,14.90
2022-08-17T12:50:00,mnr,18.24
2022-08-17T12:51:00,mnr,16.20
2022-08-17T12:52:00,mnr,16.23
2022-08-17T12:53:00,mnr,16.29
2022-08-17T12:54:00,mnr,16.37
2022-08-17T12:55:00,mnr,16.43
2022-08-17T12:56:00,mnr,16.59
2022-08-17T12:57:00,mnr,17.85
2022-08-17T12:58:00,mnr,17.32
2022-08-17T12:59:00,mnr,15.74
2022-08-17T13:00:00,mnr,14.14
2022-08-17T13:01:00,mnr,14.14
2022-08-17T13:02:00,mnr,14.21
2022-08-17T13:03:00,mnr,16.37
2022-08-17T13:04:00,mnr,15.75
2022-08-17T13:05:00,mnr,15.41
2022-08-17T13:06:00,mnr,15.30
2022-08-17T13:07:00,mnr,15.42
2022-08-17T13:08:00,mnr,15.62
2022-08-17T13:09:00,mnr,15.30
2022-08-17T13:10:00,mnr,15.67
2022-08-17T13:11:00,mnr,15.52
2022-08-17T13:12:00,mnr,15.66
2022-08-17T13:13:00,mnr,14.33
2022-08-17T13:14:00,mnr,14.31
2022-08-17T13:15:00,mnr,14.96
2022-08-17T13:16:00,mnr,15.01
2022-08-17T13:17:00,mnr,14.88
2022-08-17T13:18:00,mnr,15.04
2022-08-17T13:19:00,mnr,15.32
2022-08-17T13:20:00,mnr,15.08
2022-08-17T13:21:00,mnr,15.71
2022-08-17T13:22:00,mnr,15.04
2022-08-17T13:23:00,mnr,14.38
2022-08-17T13:24:00,mnr,14.85
2022-08-17T13:25:00,mnr,14.45
2022-08-17T13:26:00,mnr,14.19
2022-08-17T13:27:00,mnr,20.44
2022-08-17T13:28:00,mnr,15.55